This is the latest recevied weather packets stored in our database for station/object N7NKE. If no packets are shown the sender has not sent any weather packets the latest 10 day(s).
| Time | Temp. | Humidity | Pressure | Rain* | Wind** | Luminosity | Snow |
|---|---|---|---|---|---|---|---|
| 1778166005 | 10.56° C | 76% | 1021 hPa | 0 mm | - | 123 W/m² | - |
| 1778164505 | 10° C | 76% | 1020.9 hPa | 0 mm | - | 91 W/m² | - |
| 1778163606 | 10° C | 76% | 1020.9 hPa | 0 mm | - | 69 W/m² | - |
| 1778162105 | 10° C | 78% | 1020.7 hPa | 0 mm | - | 46 W/m² | - |
| 1778160005 | 10° C | 77% | 1020.6 hPa | 0 mm | - | 14 W/m² | - |
| 1778159105 | 10° C | 77% | 1020.5 hPa | 0 mm | - | 0 W/m² | - |
| 1778154605 | 11.11° C | 76% | 1020.7 hPa | 0 mm | - | 0 W/m² | - |
| 1778154305 | 11.11° C | 76% | 1020.8 hPa | 0 mm | - | 0 W/m² | - |
| 1778153106 | 11.11° C | 76% | 1020.9 hPa | 0 mm | - | 0 W/m² | - |
| 1778151905 | 11.11° C | 75% | 1020.9 hPa | 0 mm | - | 0 W/m² | - |
| 1778151606 | 11.11° C | 76% | 1020.9 hPa | 0 mm | - | 0 W/m² | - |
| 1778149505 | 11.11° C | 76% | 1021.2 hPa | 0 mm | - | 0 W/m² | - |
| 1778145605 | 11.67° C | 76% | 1021.4 hPa | 0 mm | - | 0 W/m² | - |
| 1778144405 | 11.67° C | 76% | 1021.6 hPa | 0 mm | - | 0 W/m² | - |
| 1778143805 | 11.67° C | 75% | 1021.6 hPa | 0 mm | - | 0 W/m² | - |
| 1778137205 | 12.22° C | 79% | 1021.4 hPa | 0 mm | - | 0 W/m² | - |
| 1778136605 | 12.22° C | 80% | 1021.3 hPa | 0 mm | - | 0 W/m² | - |
| 1778130905 | 12.22° C | 81% | 1021.2 hPa | 0 mm | - | 0 W/m² | - |
| 1778130605 | 12.78° C | 81% | 1021.2 hPa | 0 mm | - | 0 W/m² | - |
| 1778128504 | 13.33° C | 78% | 1021.2 hPa | 0 mm | - | 0 W/m² | - |
| 1778125804 | 13.89° C | 76% | 1020.9 hPa | 0 mm | - | 0 W/m² | - |
| 1778124305 | 14.44° C | 74% | 1020.6 hPa | 0 mm | - | 0 W/m² | - |
| 1778123705 | 15° C | 73% | 1020.5 hPa | 0 mm | - | 0 W/m² | - |
| 1778123104 | 15° C | 72% | 1020.4 hPa | 0 mm | - | 11 W/m² | - |
| 1778122805 | 15° C | 72% | 1020.3 hPa | 0 mm | - | 16 W/m² | - |
* Rain latest hour (hover to see other rain measurements)
** Current wind speed in m/s (hover to see current wind gust speed)